This is the latest recevied weather packets stored in our database for station/object lw9ero. If no packets are shown the sender has not sent any weather packets the latest 10 day(s).
| Time | Temp. | Humidity | Pressure | Rain* | Wind** | Luminosity | Snow |
|---|---|---|---|---|---|---|---|
| 1777775365 | 3.89° C | 88% | 1031.5 hPa | 0 mm | - | 922 W/m² | - |
| 1777774760 | 4.44° C | 88% | 1031.4 hPa | 0 mm | - | 922 W/m² | - |
| 1777774153 | 4.44° C | 87% | 1031.7 hPa | 0 mm | - | 922 W/m² | - |
| 1777773546 | 4.44° C | 86% | 1031.5 hPa | 0 mm | - | 1031 W/m² | - |
| 1777772942 | 5° C | 86% | 1031.4 hPa | 0 mm | - | 1031 W/m² | - |
| 1777772335 | 5° C | 83% | 1031.6 hPa | 0 mm | - | 1031 W/m² | - |
| 1777771728 | 5° C | 83% | 1031.5 hPa | 0 mm | - | 1068 W/m² | - |
| 1777771122 | 5° C | 81% | 1031.4 hPa | 0 mm | - | 1068 W/m² | - |
| 1777770516 | 5.56° C | 79% | 1031.6 hPa | 0 mm | - | 1068 W/m² | - |
| 1777769910 | 5.56° C | 79% | 1031.4 hPa | 0 mm | - | 1178 W/m² | - |
| 1777769304 | 5.56° C | 78% | 1031.4 hPa | 0 mm | - | 1178 W/m² | - |
| 1777768698 | 5.56° C | 75% | 1031.5 hPa | 0 mm | - | 1178 W/m² | - |
| 1777768091 | 6.11° C | 74% | 1031.5 hPa | 0 mm | - | 1251 W/m² | - |
| 1777767485 | 6.11° C | 72% | 1031.5 hPa | 0 mm | - | 1251 W/m² | - |
| 1777766878 | 6.67° C | 72% | 1031.5 hPa | 0 mm | - | 1251 W/m² | - |
| 1777766272 | 6.11° C | 72% | 1031.3 hPa | 0 mm | - | 1324 W/m² | - |
| 1777765666 | 6.67° C | 71% | 1031.5 hPa | 0 mm | - | 1324 W/m² | - |
| 1777765059 | 6.67° C | 70% | 1031.6 hPa | 0 mm | - | 1324 W/m² | - |
| 1777764454 | 7.22° C | 68% | 1031.4 hPa | 0 mm | - | 1397 W/m² | - |
| 1777763847 | 7.78° C | 67% | 1031.4 hPa | 0 mm | - | 1397 W/m² | - |
| 1777763242 | 7.78° C | 66% | 1031.3 hPa | 0 mm | - | 1397 W/m² | - |
| 1777762635 | 7.78° C | 66% | 1031.4 hPa | 0 mm | - | 1397 W/m² | - |
| 1777762029 | 8.33° C | 64% | 1031.3 hPa | 0 mm | - | 1397 W/m² | - |
| 1777761423 | 8.33° C | 63% | 1031.5 hPa | 0 mm | - | 1397 W/m² | - |
| 1777760817 | 8.89° C | 62% | 1031.3 hPa | 0 mm | - | 1434 W/m² | - |
* Rain latest hour (hover to see other rain measurements)
** Current wind speed in m/s (hover to see current wind gust speed)